AAY700 KLAS-KFAT

Flight info

Callsign AAY700
Flight time 0h 49m
Altitude 34000
Route JOHKR5 KENNO TTMSN CABAB FRA
Aircraft A319/M-SDE3FGHIRWY/LB1

Departure

Time 2026-05-08 01:46
Airport Harry Reid International Airport (KLAS)

Arrival

Time 2026-05-08 02:35
Airport Fresno Yosemite International Airport (KFAT)
Time Latitude Longitude Altitude Speed Heading
2026-05-08 01:15 36.08707 -115.15343 2116 ft 0 kts 150°
2026-05-08 01:32 36.08714 -115.15348 2117 ft 4 kts 150°
2026-05-08 01:32 36.08738 -115.15364 2116 ft 4 kts 150°
2026-05-08 01:33 36.08761 -115.15381 2116 ft 4 kts 150°
2026-05-08 01:33 36.08784 -115.15396 2115 ft 2 kts 150°
2026-05-08 01:33 36.08785 -115.15397 2115 ft 0 kts 150°
2026-05-08 01:35 36.08784 -115.15396 2115 ft 0 kts 153°
2026-05-08 01:35 36.08781 -115.15395 2115 ft 3 kts 158°
2026-05-08 01:36 36.08755 -115.15419 2115 ft 8 kts 239°
2026-05-08 01:36 36.08719 -115.15495 2112 ft 12 kts 236°
2026-05-08 01:36 36.08659 -115.15542 2113 ft 8 kts 205°
2026-05-08 01:36 36.08616 -115.15569 2114 ft 5 kts 209°
2026-05-08 01:37 36.08594 -115.15583 2115 ft 2 kts 208°
2026-05-08 01:37 36.08580 -115.15593 2116 ft 3 kts 207°
2026-05-08 01:37 36.08558 -115.15605 2119 ft 6 kts 198°
2026-05-08 01:37 36.08512 -115.15640 2121 ft 9 kts 220°
2026-05-08 01:38 36.08458 -115.15662 2123 ft 9 kts 168°
2026-05-08 01:38 36.08394 -115.15627 2124 ft 12 kts 155°
2026-05-08 01:38 36.08309 -115.15579 2125 ft 15 kts 154°
2026-05-08 01:38 36.08216 -115.15525 2128 ft 15 kts 155°
2026-05-08 01:39 36.08120 -115.15471 2132 ft 14 kts 155°
2026-05-08 01:39 36.08034 -115.15421 2133 ft 14 kts 155°
2026-05-08 01:39 36.07948 -115.15372 2136 ft 13 kts 155°
2026-05-08 01:39 36.07871 -115.15327 2138 ft 12 kts 155°
2026-05-08 01:40 36.07810 -115.15259 2136 ft 14 kts 105°
2026-05-08 01:40 36.07804 -115.15118 2129 ft 16 kts 91°
2026-05-08 01:40 36.07797 -115.14979 2126 ft 17 kts 94°
2026-05-08 01:40 36.07786 -115.14821 2120 ft 21 kts 95°
2026-05-08 01:41 36.07773 -115.14627 2109 ft 20 kts 95°
2026-05-08 01:41 36.07760 -115.14447 2106 ft 20 kts 96°
2026-05-08 01:41 36.07754 -115.14258 2099 ft 24 kts 90°
2026-05-08 01:41 36.07754 -115.14052 2095 ft 21 kts 90°
2026-05-08 01:42 36.07753 -115.13887 2094 ft 20 kts 90°
2026-05-08 01:42 36.07753 -115.13706 2088 ft 23 kts 89°
2026-05-08 01:42 36.07753 -115.13500 2084 ft 25 kts 90°
2026-05-08 01:42 36.07753 -115.13295 2077 ft 22 kts 90°
2026-05-08 01:43 36.07753 -115.13083 2068 ft 27 kts 90°
2026-05-08 01:43 36.07754 -115.12864 2060 ft 27 kts 90°
2026-05-08 01:43 36.07754 -115.12638 2051 ft 22 kts 90°
2026-05-08 01:43 36.07753 -115.12447 2047 ft 21 kts 90°
2026-05-08 01:44 36.07754 -115.12261 2042 ft 21 kts 90°
2026-05-08 01:44 36.07743 -115.12140 2040 ft 7 kts 121°
2026-05-08 01:44 36.07711 -115.12118 2043 ft 8 kts 168°
2026-05-08 01:44 36.07649 -115.12133 2042 ft 10 kts 225°
2026-05-08 01:45 36.07639 -115.12268 2045 ft 40 kts 270°
2026-05-08 01:45 36.07640 -115.12899 2061 ft 104 kts 270°
2026-05-08 01:45 36.07641 -115.14011 2095 ft 154 kts 270°
2026-05-08 01:45 36.07651 -115.15447 2447 ft 170 kts 273°
2026-05-08 01:46 36.07665 -115.16914 3080 ft 171 kts 271°
2026-05-08 01:46 36.07654 -115.18391 3688 ft 173 kts 268°
2026-05-08 01:46 36.07628 -115.19924 4115 ft 188 kts 268°
2026-05-08 01:46 36.07513 -115.21651 4287 ft 217 kts 259°
2026-05-08 01:47 36.07234 -115.23590 4663 ft 240 kts 259°
2026-05-08 01:47 36.06569 -115.25503 5314 ft 249 kts 230°
2026-05-08 01:47 36.05121 -115.26787 5797 ft 270 kts 203°
2026-05-08 01:48 36.01509 -115.28417 7380 ft 281 kts 201°
2026-05-08 01:48 35.99659 -115.29242 8229 ft 285 kts 202°
2026-05-08 01:48 35.97864 -115.30303 9079 ft 288 kts 210°
2026-05-08 01:48 35.96079 -115.31462 9955 ft 292 kts 210°
2026-05-08 01:49 35.94306 -115.32793 10430 ft 309 kts 223°
2026-05-08 01:49 35.92982 -115.34948 10729 ft 326 kts 249°
2026-05-08 01:49 35.92511 -115.37700 11253 ft 333 kts 269°
2026-05-08 01:49 35.92370 -115.40586 11965 ft 340 kts 269°
2026-05-08 01:50 35.92225 -115.43524 12678 ft 346 kts 269°
2026-05-08 01:50 35.92075 -115.46513 13404 ft 352 kts 269°
2026-05-08 01:50 35.91922 -115.49546 14075 ft 357 kts 269°
2026-05-08 01:50 35.91765 -115.52615 14738 ft 361 kts 269°
2026-05-08 01:51 35.91602 -115.55715 15441 ft 364 kts 269°
2026-05-08 01:51 35.91437 -115.58851 16170 ft 368 kts 269°
2026-05-08 01:51 35.91268 -115.62013 16888 ft 372 kts 269°
2026-05-08 01:51 35.91095 -115.65204 17597 ft 375 kts 269°
2026-05-08 01:52 35.91031 -115.68434 18248 ft 378 kts 278°
2026-05-08 01:52 35.91673 -115.71556 18810 ft 377 kts 296°
2026-05-08 01:52 35.93074 -115.74264 19403 ft 375 kts 314°
2026-05-08 01:52 35.94970 -115.76477 20022 ft 376 kts 320°
2026-05-08 01:53 35.96921 -115.78649 20627 ft 379 kts 320°
2026-05-08 01:53 35.98889 -115.80839 21240 ft 383 kts 320°
2026-05-08 01:53 36.00873 -115.83054 21836 ft 386 kts 320°
2026-05-08 01:53 36.02875 -115.85290 22438 ft 390 kts 320°
2026-05-08 01:54 36.04892 -115.87553 23003 ft 394 kts 320°
2026-05-08 01:54 36.06925 -115.89840 23523 ft 397 kts 320°
2026-05-08 01:54 36.08977 -115.92152 23979 ft 401 kts 320°
2026-05-08 01:54 36.11043 -115.94481 24462 ft 403 kts 320°
2026-05-08 01:55 36.13123 -115.96824 24919 ft 405 kts 320°
2026-05-08 01:55 36.15218 -115.99178 25381 ft 408 kts 320°
2026-05-08 01:55 36.17324 -116.01545 25792 ft 410 kts 320°
2026-05-08 01:55 36.19442 -116.03932 26218 ft 413 kts 320°
2026-05-08 01:56 36.21569 -116.06331 26640 ft 416 kts 320°
2026-05-08 01:56 36.23718 -116.08757 27081 ft 418 kts 320°
2026-05-08 01:56 36.25868 -116.11190 27510 ft 421 kts 320°
2026-05-08 01:56 36.28041 -116.13651 27915 ft 424 kts 320°
2026-05-08 01:57 36.30220 -116.16118 28335 ft 426 kts 320°
2026-05-08 01:57 36.32412 -116.18603 28741 ft 429 kts 320°
2026-05-08 01:57 36.34619 -116.21111 29166 ft 431 kts 320°
2026-05-08 01:57 36.36839 -116.23634 29571 ft 434 kts 319°
2026-05-08 01:58 36.39073 -116.26171 29911 ft 436 kts 319°
2026-05-08 01:58 36.41317 -116.28720 30238 ft 439 kts 319°
2026-05-08 01:58 36.43574 -116.31286 30553 ft 441 kts 319°
2026-05-08 01:58 36.45841 -116.33867 30875 ft 443 kts 319°
2026-05-08 01:59 36.48118 -116.36460 31193 ft 445 kts 319°
2026-05-08 01:59 36.50404 -116.39065 31489 ft 447 kts 319°
2026-05-08 01:59 36.52699 -116.41681 31824 ft 448 kts 319°
2026-05-08 01:59 36.54987 -116.44295 32307 ft 445 kts 319°
2026-05-08 02:00 36.57258 -116.46895 32778 ft 443 kts 319°
2026-05-08 02:00 36.59524 -116.49490 33251 ft 442 kts 319°
2026-05-08 02:00 36.61778 -116.52073 33662 ft 441 kts 319°
2026-05-08 02:00 36.64034 -116.54657 33818 ft 439 kts 319°
2026-05-08 02:01 36.68439 -116.59702 33852 ft 430 kts 319°
2026-05-08 02:01 36.72827 -116.64752 33854 ft 429 kts 319°
2026-05-08 02:02 36.77208 -116.69805 33854 ft 429 kts 319°
2026-05-08 02:02 36.81595 -116.74856 33860 ft 429 kts 319°
2026-05-08 02:03 36.85974 -116.79907 33860 ft 429 kts 319°
2026-05-08 02:03 36.90350 -116.84969 33870 ft 429 kts 319°
2026-05-08 02:04 36.94721 -116.90035 33871 ft 428 kts 318°
2026-05-08 02:04 36.99089 -116.95108 33871 ft 428 kts 318°
2026-05-08 02:05 37.03453 -117.00185 33877 ft 428 kts 318°
2026-05-08 02:05 37.07077 -117.04404 33891 ft 428 kts 318°
2026-05-08 02:06 37.11434 -117.09486 33891 ft 428 kts 318°
2026-05-08 02:06 37.15787 -117.14562 33901 ft 428 kts 318°
2026-05-08 02:07 37.20139 -117.19654 33898 ft 428 kts 318°
2026-05-08 02:07 37.24490 -117.24759 33896 ft 429 kts 317°
2026-05-08 02:08 37.28455 -117.30342 33906 ft 431 kts 303°
2026-05-08 02:08 37.30749 -117.37286 33894 ft 435 kts 283°
2026-05-08 02:09 37.31865 -117.44758 33898 ft 435 kts 282°
2026-05-08 02:09 37.32965 -117.52187 33877 ft 435 kts 282°
2026-05-08 02:10 37.34072 -117.59669 33878 ft 436 kts 282°
2026-05-08 02:10 37.35096 -117.67174 33879 ft 437 kts 276°
2026-05-08 02:11 37.34861 -117.74815 33877 ft 439 kts 266°
2026-05-08 02:11 37.34316 -117.82463 33881 ft 439 kts 266°
2026-05-08 02:12 37.33785 -117.90107 33894 ft 439 kts 266°
2026-05-08 02:12 37.33248 -117.97754 33893 ft 439 kts 266°
2026-05-08 02:13 37.32972 -118.01585 33652 ft 440 kts 266°
2026-05-08 02:13 37.32691 -118.05417 33385 ft 441 kts 266°
2026-05-08 02:13 37.32406 -118.09255 33118 ft 441 kts 266°
2026-05-08 02:13 37.32124 -118.13095 32932 ft 442 kts 266°
2026-05-08 02:14 37.31839 -118.16941 32687 ft 443 kts 266°
2026-05-08 02:14 37.31553 -118.20797 32445 ft 444 kts 266°
2026-05-08 02:14 37.31268 -118.24659 32200 ft 444 kts 267°
2026-05-08 02:14 37.30984 -118.28528 31961 ft 445 kts 266°
2026-05-08 02:15 37.30698 -118.32397 31704 ft 446 kts 266°
2026-05-08 02:15 37.30406 -118.36283 31458 ft 447 kts 266°
2026-05-08 02:15 37.30111 -118.40176 31210 ft 448 kts 266°
2026-05-08 02:15 37.29819 -118.44068 30966 ft 447 kts 266°
2026-05-08 02:16 37.29526 -118.47952 30725 ft 446 kts 266°
2026-05-08 02:16 37.29231 -118.51824 30474 ft 445 kts 266°
2026-05-08 02:16 37.28936 -118.55684 30247 ft 443 kts 265°
2026-05-08 02:16 37.28637 -118.59532 29997 ft 442 kts 266°
2026-05-08 02:17 37.28338 -118.63368 29718 ft 441 kts 266°
2026-05-08 02:17 37.28038 -118.67190 29469 ft 439 kts 266°
2026-05-08 02:17 37.27732 -118.70994 29198 ft 437 kts 264°
2026-05-08 02:17 37.27146 -118.74731 28934 ft 437 kts 258°
2026-05-08 02:18 37.26432 -118.78436 28701 ft 435 kts 258°
2026-05-08 02:18 37.25720 -118.82108 28438 ft 433 kts 258°
2026-05-08 02:18 37.25006 -118.85773 28177 ft 432 kts 258°
2026-05-08 02:18 37.24295 -118.89424 27917 ft 430 kts 257°
2026-05-08 02:19 37.23596 -118.93014 27676 ft 428 kts 258°
2026-05-08 02:19 37.22892 -118.96634 27161 ft 426 kts 258°
2026-05-08 02:19 37.22194 -119.00225 26638 ft 421 kts 257°
2026-05-08 02:19 37.21500 -119.03775 26109 ft 418 kts 258°
2026-05-08 02:20 37.20807 -119.07299 25606 ft 415 kts 258°
2026-05-08 02:20 37.20119 -119.10796 25112 ft 412 kts 258°
2026-05-08 02:20 37.19435 -119.14272 24611 ft 410 kts 258°
2026-05-08 02:20 37.18756 -119.17730 24135 ft 407 kts 258°
2026-05-08 02:21 37.18080 -119.21162 23662 ft 404 kts 258°
2026-05-08 02:21 37.17406 -119.24575 23107 ft 402 kts 258°
2026-05-08 02:21 37.16735 -119.27969 22525 ft 400 kts 257°
2026-05-08 02:21 37.16066 -119.31342 21986 ft 399 kts 257°
2026-05-08 02:22 37.15394 -119.34713 21466 ft 397 kts 257°
2026-05-08 02:22 37.14726 -119.38066 20915 ft 396 kts 257°
2026-05-08 02:22 37.14062 -119.41395 20447 ft 393 kts 257°
2026-05-08 02:22 37.13404 -119.44688 20158 ft 386 kts 257°
2026-05-08 02:23 37.12754 -119.47942 19920 ft 383 kts 257°
2026-05-08 02:23 37.11894 -119.51084 19665 ft 383 kts 243°
2026-05-08 02:23 37.10303 -119.53729 19275 ft 381 kts 224°
2026-05-08 02:23 37.08084 -119.55522 18732 ft 382 kts 202°
2026-05-08 02:24 37.05496 -119.56237 18171 ft 383 kts 182°
2026-05-08 02:24 37.02870 -119.55811 17580 ft 381 kts 162°
2026-05-08 02:24 37.00392 -119.54641 17035 ft 379 kts 158°
2026-05-08 02:24 36.97945 -119.53440 16494 ft 377 kts 158°
2026-05-08 02:25 36.95505 -119.52239 15956 ft 376 kts 158°
2026-05-08 02:25 36.93076 -119.51045 15427 ft 374 kts 158°
2026-05-08 02:25 36.90662 -119.49864 14890 ft 371 kts 158°
2026-05-08 02:25 36.88281 -119.48701 14369 ft 364 kts 158°
2026-05-08 02:26 36.85939 -119.47558 13852 ft 358 kts 158°
2026-05-08 02:26 36.83692 -119.46373 13273 ft 353 kts 150°
2026-05-08 02:26 36.81798 -119.44472 12750 ft 346 kts 133°
2026-05-08 02:26 36.80154 -119.42295 12329 ft 336 kts 132°
2026-05-08 02:27 36.78613 -119.40213 11841 ft 327 kts 132°
2026-05-08 02:27 36.77093 -119.38153 11351 ft 318 kts 132°
2026-05-08 02:27 36.75617 -119.36146 10921 ft 309 kts 133°
2026-05-08 02:27 36.73952 -119.34551 10496 ft 299 kts 156°
2026-05-08 02:28 36.71970 -119.34004 10070 ft 289 kts 183°
2026-05-08 02:28 36.70069 -119.34581 9626 ft 278 kts 209°
2026-05-08 02:28 36.68564 -119.36004 9172 ft 268 kts 232°
2026-05-08 02:28 36.67641 -119.37962 8715 ft 258 kts 254°
2026-05-08 02:29 36.67344 -119.40122 8281 ft 251 kts 268°
2026-05-08 02:29 36.67213 -119.42275 7840 ft 247 kts 268°
2026-05-08 02:29 36.67079 -119.44388 7409 ft 244 kts 268°
2026-05-08 02:29 36.66945 -119.46480 6981 ft 240 kts 268°
2026-05-08 02:30 36.66811 -119.48541 6553 ft 238 kts 268°
2026-05-08 02:30 36.66680 -119.50579 6120 ft 234 kts 269°
2026-05-08 02:30 36.66818 -119.52551 5681 ft 224 kts 288°
2026-05-08 02:30 36.67446 -119.54258 5239 ft 212 kts 307°
2026-05-08 02:31 36.68275 -119.55693 4849 ft 198 kts 308°
2026-05-08 02:31 36.69057 -119.57058 4397 ft 189 kts 308°
2026-05-08 02:31 36.69804 -119.58368 3972 ft 179 kts 307°
2026-05-08 02:31 36.70486 -119.59565 3538 ft 162 kts 308°
2026-05-08 02:32 36.71121 -119.60675 3129 ft 154 kts 307°
2026-05-08 02:32 36.71742 -119.61752 2671 ft 152 kts 308°
2026-05-08 02:32 36.72352 -119.62797 2268 ft 148 kts 308°
2026-05-08 02:32 36.72946 -119.63815 1960 ft 140 kts 308°
2026-05-08 02:33 36.73490 -119.64773 1754 ft 132 kts 307°
2026-05-08 02:33 36.74005 -119.65698 1483 ft 129 kts 307°
2026-05-08 02:33 36.74507 -119.66594 1229 ft 124 kts 306°
2026-05-08 02:33 36.75011 -119.67471 1080 ft 125 kts 306°
2026-05-08 02:34 36.75506 -119.68345 929 ft 124 kts 309°
2026-05-08 02:34 36.76002 -119.69214 748 ft 123 kts 306°
2026-05-08 02:34 36.76498 -119.70075 543 ft 121 kts 308°
2026-05-08 02:34 36.76992 -119.70929 411 ft 122 kts 306°
2026-05-08 02:35 36.77466 -119.71767 338 ft 108 kts 306°
2026-05-08 02:35 36.77807 -119.72367 335 ft 53 kts 306°
2026-05-08 02:35 36.77966 -119.72650 338 ft 26 kts 306°
2026-05-08 02:35 36.78041 -119.72790 347 ft 14 kts 286°
2026-05-08 02:36 36.77981 -119.72861 340 ft 13 kts 216°
2026-05-08 02:36 36.77905 -119.72922 340 ft 12 kts 193°
2026-05-08 02:36 36.77841 -119.72856 341 ft 13 kts 124°
2026-05-08 02:36 36.77789 -119.72764 335 ft 14 kts 126°
2026-05-08 02:37 36.77732 -119.72667 341 ft 14 kts 126°
2026-05-08 02:37 36.77673 -119.72563 337 ft 15 kts 124°
2026-05-08 02:37 36.77611 -119.72452 341 ft 16 kts 126°
2026-05-08 02:37 36.77545 -119.72337 340 ft 17 kts 125°
2026-05-08 02:38 36.77477 -119.72216 341 ft 17 kts 126°
2026-05-08 02:38 36.77404 -119.72090 339 ft 18 kts 126°
2026-05-08 02:38 36.77328 -119.71960 340 ft 18 kts 127°
2026-05-08 02:38 36.77268 -119.71954 339 ft 1 kts 203°
2026-05-08 02:39 36.77267 -119.71954 339 ft 1 kts 203°
2026-05-08 02:39 36.77249 -119.71958 338 ft 3 kts 181°
2026-05-08 02:40 36.77221 -119.71937 339 ft 6 kts 142°
2026-05-08 02:40 36.77194 -119.71909 337 ft 0 kts 138°